Weather Roundup
Issued by NWS Chicago, IL

Home | Current Version | Previous Version | Text Only | Print | Product List | Glossary On
Versions: 1 2 3 4 5 6 7 8 9 10 11 12 13 14 15 16 17 18 19 20 21 22 23 24 25 26 27 28 29 30 31 32 33 34 35 36 37 38 39 40 41 42 43 44 45 46 47 48 49 50
000
NZUS59 KLOT 212009
HRRLOT

CHICAGO AREA WEATHER ROUNDUP
NATIONAL WEATHER SERVICE CHICAGO/ROMEOVILLE IL
300 PM CDT MON MAY 21 2018

NOTE: "FAIR" INDICATES FEW OR NO CLOUDS BELOW 12,000 FEET WITH NO
SIGNIFICANT WEATHER AND/OR OBSTRUCTIONS TO VISIBILITY.

* THESE STATIONS ARE NOT UNDER NWS QUALITY CONTROL. THEY ALSO MAY NOT
  REPORT WEATHER SUCH AS PRECIPITATION OR FOG.

ILZ005-006-012>014-019>023-212100-
NORTHEAST ILLINOIS

CITY           SKY/WX    TMP DP  RH WIND       PRES   REMARKS
OHARE          CLOUDY    61  58  90 CALM      30.02F FOG
MIDWAY         CLOUDY    62  61  96 E5        30.02F FOG
AURORA         CLOUDY    64  62  93 E8        30.01F FOG
LANSING*       CLOUDY    67  65  93 SE9       30.03F FOG
JOLIET*        CLOUDY    66  66  99 E5        30.02F FOG
WAUKEGAN       LGT RAIN  52  52 100 E6        30.04F VSB 3/4
DUPAGE AIRPORT CLOUDY    60  60 100 E7        30.02F FOG
WHEELING       CLOUDY    58  57  97 E3        30.05F
KANKAKEE*      PTSUNNY   74  67  76 S9        30.02F
MORRIS*        CLOUDY    65  64  96 SE6       30.00F FOG
LEWIS AIRPORT* HVY RAIN  64  63  97 SE6       30.02F
NORTHERLY ISL    N/A     54  52  93 MISG        N/A
$$

WIZ051-052-058>065-066-070>072-212100-
SOUTHEAST WISCONSIN

CITY           SKY/WX    TMP DP  RH WIND       PRES   REMARKS
MILWAUKEE      FOG       52  51  97 E12       30.07F VSB 1/4
KENOSHA*       LGT RAIN  55  53  93 E12       30.06F VSB 1
RACINE*        FOG       51  51 100 E10       30.08F VSB 1/4
BURLINGTON     CLOUDY    57  55  95 E6        30.05F
WAUKESHA       FOG       52  52 100 E9        30.09R VSB 1/4
WEST BEND      LGT RAIN  50  50 100 E9        30.09S
$$

INZ001>003-010>013-019-020-212100-
NORTHWEST INDIANA

CITY           SKY/WX    TMP DP  RH WIND       PRES   REMARKS
GARY*          CLOUDY    68  63  83 SE5       30.04F FOG
MICHIGAN CITY* NOT AVBL
RENSSELAER*    NOT AVBL
VALPARAISO       N/A     67  62  84 E8        30.05F
$$

LMZ740>746-212100-
SOUTHERN LAKE MICHIGAN

STATION/POSITION TIME  SKY/WX   TEMP WIND        PRES    VSBY
                                AIR  DIR/SP/G
                 (UTC)          (F)  (DEG/KT/KT) (MB)    (MI)
HARRISON CRIB    1940            51   20/  3/  4   N/A
BURNHAM HARBOR   2000            54  350/  2/  4   N/A
CALUMET HARBOR   1948            56   50/  3/  4 1016.5F
BURNS HARBOR     1940            65     CALM     1017.9F
MICHIGAN CITY    1940            62  110/  6/  9   N/A
$$

ABBREVIATIONS USED IN REMARKS
   TC - TEMPERATURE IN CELSIUS
  WCI - WIND CHILL INDEX
   HX - HEAT INDEX
  VSB - VISIBILITY
$$




USA.gov is the U.S. government's official web portal to all federal, state and local government web resources and services.